Weather History for Sarasota, FL

Change the Weather History Date:

Tuesday, March 20, 2012

  Actual Average Record
Temperature  
Mean Temperature 74 °F 67 °F  
Max Temperature 87 °F 77 °F 90 °F (1921)
Min Temperature 61 °F 58 °F 43 °F (1931)
Degree Days  
Heating Degree Days 0 1  
Month to date heating degree days 7 39  
Since 1 July heating degree days 205 457  
Cooling Degree Days 9 3  
Month to date cooling degree days 162 60  
Year to date cooling degree days 341 164  
Growing Degree Days 23 (Base 50)    
Moisture  
Dew Point 61 °F    
Average Humidity 71    
Maximum Humidity 90    
Minimum Humidity 40    
Precipitation  
Precipitation 0.02 in 0.12 in 3.45 in (1998)
Month to date precipitation 0.27 2.54  
Year to date precipitation 2.00 7.73  
Sea Level Pressure  
Sea Level Pressure 30.06 in    
Wind  
Wind Speed 8 mph (ESE)    
Max Wind Speed 18 mph    
Max Gust Speed 23 mph    
Visibility 10 miles    
Events      
T = Trace of Precipitation, MM = Missing Value Source: NWS Daily Summary

Daily Weather History Graph

Daily Weather History Graph

Search for Another Location

Airport:

Trip Planner

Search our weather history database for the weather conditions in past years. The results will help you decide how hot, cold, wet, or windy it might be!

Date:

Astronomy

Mar. 20, 2012 Rise Set
Actual Time 7:33 AM EDT 7:41 PM EDT
Civil Twilight 7:10 AM EDT 8:05 PM EDT
Nautical Twilight 6:43 AM EDT 8:32 PM EDT
Astronomical Twilight 6:15 AM EDT 8:59 PM EDT
Moon 6:08 AM EDT (3/20) 6:13 PM EDT (3/20)
Length of Visible Light 12h 54m
Length of Day
12h 08m
Waning Crescent, 4% of the Moon is Illuminated
Mar 20
Waning Crescent
Mar 22
New
Mar 30
First Quarter
Apr 6
Full
Apr 13
Last Quarter

Hourly Weather History & Observations

Time (EDT) Temp. Heat Index Dew Point Humidity Pressure Visibility Wind Dir Wind Speed Gust Speed Precip Events Conditions
12:53 AM 68.0 °F - 57.9 °F 70% 30.09 in 10.0 mi SE 8.1 mph - N/A   Clear
1:53 AM 66.0 °F - 57.9 °F 75% 30.08 in 10.0 mi SE 6.9 mph - N/A   Clear
2:53 AM 64.0 °F - 57.9 °F 80% 30.06 in 10.0 mi East 3.5 mph - N/A   Clear
3:53 AM 62.1 °F - 57.0 °F 84% 30.05 in 10.0 mi East 3.5 mph - N/A   Clear
4:53 AM 63.0 °F - 57.9 °F 84% 30.04 in 10.0 mi ENE 8.1 mph - N/A   Clear
5:53 AM 63.0 °F - 59.0 °F 87% 30.04 in 10.0 mi East 8.1 mph - N/A   Clear
6:53 AM 63.0 °F - 59.0 °F 87% 30.06 in 10.0 mi East 5.8 mph - N/A   Clear
7:53 AM 64.0 °F - 60.1 °F 87% 30.07 in 10.0 mi East 5.8 mph - N/A   Clear
8:53 AM 68.0 °F - 61.0 °F 78% 30.08 in 10.0 mi East 6.9 mph - N/A   Clear
9:53 AM 75.0 °F - 62.1 °F 64% 30.10 in 10.0 mi East 13.8 mph - N/A   Clear
10:53 AM 77.0 °F - 62.1 °F 60% 30.09 in 10.0 mi ESE 15.0 mph 23.0 mph N/A   Partly Cloudy
11:53 AM 80.1 °F 81.1 °F 61.0 °F 52% 30.09 in 10.0 mi ESE 11.5 mph 20.7 mph N/A   Scattered Clouds
12:53 PM 84.0 °F 83.8 °F 59.0 °F 43% 30.09 in 10.0 mi ESE 10.4 mph 20.7 mph N/A   Mostly Cloudy
1:53 PM 84.0 °F 83.5 °F 57.9 °F 41% 30.06 in 10.0 mi SE 11.5 mph 23.0 mph N/A   Scattered Clouds
2:53 PM 79.0 °F - 63.0 °F 58% 30.05 in 10.0 mi WSW 10.4 mph - N/A   Mostly Cloudy
3:53 PM 81.0 °F 82.5 °F 64.0 °F 56% 30.03 in 10.0 mi WSW 9.2 mph - N/A   Mostly Cloudy
4:53 PM 79.0 °F - 64.0 °F 60% 30.01 in 10.0 mi WSW 9.2 mph - N/A   Partly Cloudy
5:53 PM 78.8 °F - 64.4 °F 61% 30.01 in 10.0 mi WNW 5.8 mph - N/A   Mostly Cloudy
6:53 PM 73.4 °F - 64.4 °F 73% 30.01 in 10.0 mi WSW 3.5 mph - N/A   Overcast
7:53 PM 73.0 °F - 66.0 °F 79% 30.01 in 10.0 mi SSE 5.8 mph - 0.00 in   Overcast
8:53 PM 70.0 °F - 64.9 °F 84% 30.03 in 10.0 mi SSE 4.6 mph - N/A   Mostly Cloudy
9:53 PM 70.0 °F - 64.9 °F 84% 30.06 in 10.0 mi East 3.5 mph - N/A   Clear
10:53 PM 69.1 °F - 64.0 °F 84% 30.07 in 10.0 mi East 4.6 mph - N/A   Clear
11:53 PM 68.0 °F - 61.0 °F 78% 30.08 in 10.0 mi East 6.9 mph - N/A   Clear